Date String (YYYY-MM-DD hh:mm:ss) UTC,Instrument flags,absolute air pressure of the measurement (hPa),sample flow rate (lpm),inlet stack bypass flow (lpm),air temperature of the measurement (°C),ambient temperature measured by the external sensor (°C),aerosol sample conditioner tube jacket temperature (°C),OPC LED temperature (°C),internal box temperature (°C),relative humidity of the measurement (%),span deviation,mass concentration of particles derived from Lorenz-Mie calculation of OPC scattering (μg/m³),mass concentration of particles derived from Lorenz-Mie calculation of OPC scattering (μg/m³),mass concentration of particles derived from Lorenz-Mie calculation of OPC scattering (μg/m³)
DateTimeUTC,F1_M11,P_M11,Q1_M11,Q2_M11,T1_M11,T2_M11,T3_M11,T4_M11,T5_M11,U1_M11,ZSPAN_M11,X2_M11,X0_M11,X1_M11
2023-10-09 17:00:00,SystemResetWarning,0829.1,5.00,000.00,028.9,024.7,000.0,037.2,030.4,14.9,0000.0,0003.77,0012.46,0002.90
2023-10-09 17:01:00,SystemResetWarning,0829.1,5.02,000.00,028.8,024.8,000.0,037.2,030.3,14.7,0000.0,0003.79,0012.73,0002.90
2023-10-09 17:02:00,SystemResetWarning,0829.1,5.01,000.00,028.7,025.1,000.0,037.2,030.1,14.9,0000.0,0003.75,0012.91,0002.91
2023-10-09 17:03:00,SystemResetWarning,0829.0,5.00,000.00,028.6,025.4,000.0,037.2,030.1,15.3,0000.0,0003.72,0012.13,0002.93
2023-10-09 17:04:00,SystemResetWarning,0829.0,5.00,000.00,028.6,025.8,000.0,037.2,030.2,15.2,0000.0,0003.78,0010.50,0002.97
2023-10-09 17:05:00,SystemResetWarning,0829.0,5.00,000.00,028.6,026.2,000.0,037.2,030.2,15.2,0000.0,0003.84,0010.63,0003.02
2023-10-09 17:06:00,SystemResetWarning,0829.0,5.00,000.00,028.6,026.5,000.0,037.2,030.3,15.0,0000.0,0003.89,0011.36,0003.05
2023-10-09 17:07:00,SystemResetWarning,0829.0,5.00,000.00,028.6,026.7,000.0,037.2,030.3,14.8,0000.0,0003.90,0012.56,0003.07
2023-10-09 17:08:00,SystemResetWarning,0829.0,4.99,000.00,028.7,026.9,000.0,037.2,030.3,14.8,0000.0,0003.92,0011.90,0003.08
2023-10-09 17:09:00,SystemResetWarning,0829.0,4.99,000.00,028.7,027.1,000.0,037.2,030.4,15.0,0000.0,0003.96,0011.17,0003.10
2023-10-09 17:10:00,SystemResetWarning,0829.0,5.00,000.00,028.7,027.3,000.0,037.2,030.4,15.1,0000.0,0003.95,0011.26,0003.10
2023-10-09 17:11:00,SystemResetWarning,0829.0,5.00,000.00,028.7,027.4,000.0,037.2,030.5,15.1,0000.0,0003.95,0011.49,0003.10
2023-10-09 17:12:00,SystemResetWarning,0828.9,5.01,000.00,028.8,027.5,000.0,037.2,030.5,14.9,0000.0,0003.98,0010.92,0003.11
2023-10-09 17:13:00,SystemResetWarning,0829.0,5.00,000.00,028.8,027.6,000.0,037.2,030.6,14.9,0000.0,0004.06,0011.04,0003.12
2023-10-09 17:14:00,SystemResetWarning,0828.9,5.00,000.00,028.8,027.7,000.0,037.3,030.6,14.5,0000.0,0004.07,0011.64,0003.14
2023-10-09 17:15:00,SystemResetWarning,0829.0,5.00,000.00,028.9,027.8,000.0,037.3,030.7,14.6,0000.0,0004.04,0011.76,0003.14
2023-10-09 17:16:00,SystemResetWarning,0828.9,4.99,000.00,028.9,027.1,000.0,037.3,030.7,14.7,0000.0,0004.00,0011.71,0003.14
2023-10-09 17:17:00,SystemResetWarning,0828.9,5.00,000.00,028.8,025.2,000.0,037.2,030.5,14.6,0000.0,0003.96,0012.82,0003.15
2023-10-09 17:18:00,SystemResetWarning,0828.9,5.02,000.00,028.8,024.6,000.0,037.1,030.3,14.9,0000.0,0003.92,0012.15,0003.15
2023-10-09 17:19:00,SystemResetWarning,0828.8,5.00,000.00,028.7,024.9,000.0,037.1,030.2,14.9,0000.0,0003.93,0012.41,0003.17
2023-10-09 17:20:00,SystemResetWarning,0828.8,5.00,000.00,028.6,025.2,000.0,037.1,030.1,14.9,0000.0,0003.95,0012.79,0003.18
2023-10-09 17:21:00,SystemResetWarning,0828.7,5.00,000.00,028.6,025.6,000.0,037.1,030.1,14.8,0000.0,0003.93,0012.61,0003.19
2023-10-09 17:22:00,SystemResetWarning,0828.8,5.00,000.00,028.6,026.0,000.0,037.1,030.1,14.8,0000.0,0003.95,0012.48,0003.20
2023-10-09 17:23:00,SystemResetWarning,0828.8,5.00,000.00,028.6,026.3,000.0,037.1,030.2,15.1,0000.0,0003.94,0012.33,0003.21
2023-10-09 17:24:00,SystemResetWarning,0828.8,5.00,000.00,028.6,026.6,000.0,037.1,030.2,14.9,0000.0,0003.86,0012.04,0003.20
2023-10-09 17:25:00,SystemResetWarning,0828.8,5.00,000.00,028.6,026.8,000.0,037.1,030.3,14.5,0000.0,0003.84,0011.45,0003.19
2023-10-09 17:26:00,SystemResetWarning,0828.7,5.00,000.00,028.6,027.0,000.0,037.1,030.3,14.6,0000.0,0003.84,0011.91,0003.18
2023-10-09 17:27:00,SystemResetWarning,0828.7,5.01,000.00,028.7,027.2,000.0,037.1,030.4,14.6,0000.0,0003.82,0012.13,0003.17
2023-10-09 17:28:00,SystemResetWarning,0828.7,5.00,000.00,028.7,027.3,000.0,037.1,030.4,14.7,0000.0,0003.79,0010.99,0003.16
2023-10-09 17:29:00,SystemResetWarning,0828.7,4.99,000.00,028.7,027.5,000.0,037.2,030.5,14.9,0000.0,0003.80,0010.08,0003.15
2023-10-09 17:30:00,SystemResetWarning,0828.7,5.00,000.00,028.8,027.6,000.0,037.2,030.5,14.7,0000.0,0003.83,0010.27,0003.15
2023-10-09 17:31:00,SystemResetWarning,0828.7,5.00,000.00,028.8,027.7,000.0,037.2,030.6,14.5,0000.0,0003.80,0010.56,0003.13
2023-10-09 17:32:00,SystemResetWarning,0828.7,4.99,000.00,028.8,027.6,000.0,037.2,030.6,14.5,0000.0,0003.75,0010.54,0003.12
2023-10-09 17:33:00,SystemResetWarning,0828.6,4.98,000.00,028.8,026.2,000.0,037.2,030.5,14.3,0000.0,0003.76,0011.09,0003.11
2023-10-09 17:34:00,SystemResetWarning,0828.6,5.00,000.00,028.7,024.7,000.0,037.1,030.3,14.3,0000.0,0003.76,0011.44,0003.11
2023-10-09 17:35:00,SystemResetWarning,0828.6,5.01,000.00,028.7,024.7,000.0,037.0,030.2,14.3,0000.0,0003.78,0011.31,0003.12
2023-10-09 17:36:00,SystemResetWarning,0828.6,5.00,000.00,028.6,025.0,000.0,037.0,030.0,14.5,0000.0,0003.80,0011.17,0003.13
2023-10-09 17:37:00,SystemResetWarning,0828.6,4.98,000.00,028.5,025.4,000.0,037.1,030.0,14.3,0000.0,0003.79,0010.47,0003.14
2023-10-09 17:38:00,SystemResetWarning,0828.6,5.00,000.00,028.5,025.8,000.0,037.1,030.1,14.6,0000.0,0003.81,0010.16,0003.15
2023-10-09 17:39:00,SystemResetWarning,0828.6,5.02,000.00,028.5,026.1,000.0,037.1,030.1,14.7,0000.0,0003.86,0010.29,0003.17
2023-10-09 17:40:00,SystemResetWarning,0828.6,5.00,000.00,028.5,026.4,000.0,037.1,030.2,14.9,0000.0,0003.91,0010.35,0003.18
2023-10-09 17:41:00,SystemResetWarning,0828.5,5.00,000.00,028.5,026.7,000.0,037.1,030.2,14.9,0000.0,0003.89,0009.89,0003.19
2023-10-09 17:42:00,SystemResetWarning,0828.6,4.99,000.00,028.6,026.9,000.0,037.1,030.3,15.0,0000.0,0003.91,0009.86,0003.20
2023-10-09 17:43:00,SystemResetWarning,0828.6,4.99,000.00,028.6,027.1,000.0,037.1,030.3,15.2,0000.0,0003.96,0010.52,0003.22
2023-10-09 17:44:00,SystemResetWarning,0828.6,5.00,000.00,028.6,027.3,000.0,037.1,030.4,14.7,0000.0,0003.94,0010.32,0003.23
2023-10-09 17:45:00,SystemResetWarning,0828.6,5.00,000.00,028.7,027.4,000.0,037.1,030.5,15.1,0000.0,0003.91,0011.19,0003.23
2023-10-09 17:46:00,SystemResetWarning,0828.6,5.00,000.00,028.7,027.5,000.0,037.1,030.5,15.5,0000.0,0003.89,0011.47,0003.23
2023-10-09 17:47:00,SystemResetWarning,0828.6,5.00,000.00,028.8,027.6,000.0,037.1,030.5,15.6,0000.0,0003.90,0011.54,0003.23
2023-10-09 17:48:00,SystemResetWarning,0828.6,4.99,000.00,028.8,027.0,000.0,037.1,030.6,15.7,0000.0,0003.94,0011.83,0003.24
2023-10-09 17:49:00,SystemResetWarning,0828.6,5.00,000.00,028.7,025.1,000.0,037.1,030.3,14.7,0000.0,0003.95,0012.17,0003.24
2023-10-09 17:50:00,SystemResetWarning,0828.6,5.00,000.00,028.6,024.5,000.0,037.0,030.2,15.0,0000.0,0003.96,0013.01,0003.26
2023-10-09 17:51:00,SystemResetWarning,0828.6,5.01,000.00,028.6,024.8,000.0,037.0,030.0,15.3,0000.0,0003.95,0013.01,0003.27
2023-10-09 17:52:00,SystemResetWarning,0828.6,5.00,000.00,028.5,025.1,000.0,037.0,030.0,15.4,0000.0,0003.95,0012.95,0003.27
2023-10-09 17:53:00,SystemResetWarning,0828.6,4.99,000.00,028.4,025.5,000.0,037.0,030.0,15.6,0000.0,0003.94,0012.41,0003.28
2023-10-09 17:54:00,SystemResetWarning,0828.6,5.00,000.00,028.4,025.9,000.0,037.0,030.0,15.2,0000.0,0003.91,0012.07,0003.28
2023-10-09 17:55:00,SystemResetWarning,0828.5,5.01,000.00,028.5,026.2,000.0,037.0,030.1,15.4,0000.0,0003.93,0012.33,0003.29
2023-10-09 17:56:00,SystemResetWarning,0828.6,5.00,000.00,028.5,026.5,000.0,037.0,030.2,15.7,0000.0,0003.96,0012.01,0003.30
2023-10-09 17:57:00,SystemResetWarning,0828.5,5.00,000.00,028.5,026.8,000.0,037.0,030.2,15.6,0000.0,0004.02,0011.81,0003.32
2023-10-09 17:58:00,SystemResetWarning,0828.5,4.99,000.00,028.5,027.0,000.0,037.0,030.3,15.3,0000.0,0004.07,0011.84,0003.34
2023-10-09 17:59:00,SystemResetWarning,0828.5,4.98,000.00,028.6,027.2,000.0,037.0,030.3,15.2,0000.0,0004.05,0011.63,0003.35
